Es ist keine erhöhte Aufmerksamkeit aufgrund des Wetters notwendig.    Es gibt keine Warnungen.
Webcam Vorhersage DWD Regenradar Wetterlage NRW Blitze Wind GFS-Modell
webcam


Kleve -Düffelward more information Kleve -Düffelward


Goch more information Goch


Thunder radar more information blitzortung!


Weitere Templates dieser Seite und andere Webseiten:

Meteotemplate

Awekas - Template

weather34 - Template

Wetter aus Willich

Hubert Reyers' Wetter


te
World Weather Websites
 

METAR-Meldungen aus der Umgebung

   
EHDL - Nijmegen
Aktualisierung: 14-05-2021 11:55
Bewölkt  
Bewölkt  
   Wind: NNW 7.4 km/h
Wind: NNW 7.4 km/h
Temperatur: 11°C
Taupunkt: 8°C
Luftfeuchte: 82%
Luftdruck: 1008 hPa
Bewölkt: Bewölkt
Sichtbarkeit: More than 10 km
Bewölkung: Teilweise bewölkt 800 ft,
Stark bewölkt 900 ft,
Bewölkt 1100 ft
EHDL 140955Z AUTO 33004KT 220V340 9999 SCT008 BKN009 OVC011 11/08 Q1008 GRN
EHDL - Arnhem
Aktualisierung: 14-05-2021 11:55
Bewölkt  
Bewölkt  
   Wind: NNW 7.4 km/h
Wind: NNW 7.4 km/h
Temperatur: 11°C
Taupunkt: 8°C
Luftfeuchte: 82%
Luftdruck: 1008 hPa
Bewölkt: Bewölkt
Sichtbarkeit: More than 10 km
Bewölkung: Teilweise bewölkt 800 ft,
Stark bewölkt 900 ft,
Bewölkt 1100 ft
EHDL 140955Z AUTO 33004KT 220V340 9999 SCT008 BKN009 OVC011 11/08 Q1008 GRN
EHAM - Amsterdam
Aktualisierung: 14-05-2021 11:55
Stark bewölkt  
Stark bewölkt  
   Wind: variiert 1.9 km/h
Wind: variiert 1.9 km/h
Temperatur: 11°C
Taupunkt: 7°C
Luftfeuchte: 77%
Luftdruck: 1008 hPa
Bewölkt: Stark bewölkt
Sichtbarkeit: More than 10 km
Bewölkung: leicht bewölkt 1100 ft,
Stark bewölkt 1700 ft
EHAM 140955Z VRB01KT 9999 FEW011 BKN017 11/07 Q1008 BECMG SCT020
EHDL - Ede
Aktualisierung: 14-05-2021 11:55
Bewölkt  
Bewölkt  
   Wind: NNW 7.4 km/h
Wind: NNW 7.4 km/h
Temperatur: 11°C
Taupunkt: 8°C
Luftfeuchte: 82%
Luftdruck: 1008 hPa
Bewölkt: Bewölkt
Sichtbarkeit: More than 10 km
Bewölkung: Teilweise bewölkt 800 ft,
Stark bewölkt 900 ft,
Bewölkt 1100 ft
EHDL 140955Z AUTO 33004KT 220V340 9999 SCT008 BKN009 OVC011 11/08 Q1008 GRN
EHDL - Emmen
Aktualisierung: 14-05-2021 11:55
Bewölkt  
Bewölkt  
   Wind: NNW 7.4 km/h
Wind: NNW 7.4 km/h
Temperatur: 11°C
Taupunkt: 8°C
Luftfeuchte: 82%
Luftdruck: 1008 hPa
Bewölkt: Bewölkt
Sichtbarkeit: More than 10 km
Bewölkung: Teilweise bewölkt 800 ft,
Stark bewölkt 900 ft,
Bewölkt 1100 ft
EHDL 140955Z AUTO 33004KT 220V340 9999 SCT008 BKN009 OVC011 11/08 Q1008 GRN
EHAM - Den Haag
Aktualisierung: 14-05-2021 11:55
Stark bewölkt  
Stark bewölkt  
   Wind: variiert 1.9 km/h
Wind: variiert 1.9 km/h
Temperatur: 11°C
Taupunkt: 7°C
Luftfeuchte: 77%
Luftdruck: 1008 hPa
Bewölkt: Stark bewölkt
Sichtbarkeit: More than 10 km
Bewölkung: leicht bewölkt 1100 ft,
Stark bewölkt 1700 ft
EHAM 140955Z VRB01KT 9999 FEW011 BKN017 11/07 Q1008 BECMG SCT020
EHAM - Apeldoorn
Aktualisierung: 14-05-2021 11:55
Stark bewölkt  
Stark bewölkt  
   Wind: variiert 1.9 km/h
Wind: variiert 1.9 km/h
Temperatur: 11°C
Taupunkt: 7°C
Luftfeuchte: 77%
Luftdruck: 1008 hPa
Bewölkt: Stark bewölkt
Sichtbarkeit: More than 10 km
Bewölkung: leicht bewölkt 1100 ft,
Stark bewölkt 1700 ft
EHAM 140955Z VRB01KT 9999 FEW011 BKN017 11/07 Q1008 BECMG SCT020
EHAM - Leeuwarden
Aktualisierung: 14-05-2021 11:55
Stark bewölkt  
Stark bewölkt  
   Wind: variiert 1.9 km/h
Wind: variiert 1.9 km/h
Temperatur: 11°C
Taupunkt: 7°C
Luftfeuchte: 77%
Luftdruck: 1008 hPa
Bewölkt: Stark bewölkt
Sichtbarkeit: More than 10 km
Bewölkung: leicht bewölkt 1100 ft,
Stark bewölkt 1700 ft
EHAM 140955Z VRB01KT 9999 FEW011 BKN017 11/07 Q1008 BECMG SCT020
TNCC - Willemstad
Aktualisierung: 14-05-2021 12:00
Teilweise bewölkt  
Teilweise bewölkt  
   Wind: Osten 20.4 km/h
Wind: Osten 20.4 km/h
Temperatur: 26°C
Taupunkt: 22°C
Luftfeuchte: 79%
Luftdruck: 1013 hPa
Bewölkt: Teilweise bewölkt
Sichtbarkeit: More than 10 km
Bewölkung: Teilweise bewölkt 1800 ft
TNCC 141000Z 10011KT 9999 SCT018 26/22 Q1013 NOSIG
EHEH - Eindhoven
Aktualisierung: 14-05-2021 11:55
Bewölkt  
Bewölkt  
   Wind: variiert 5.6 km/h
Wind: variiert 5.6 km/h
Temperatur: 15°C
Taupunkt: 7°C
Luftfeuchte: 59%
Luftdruck: 1008 hPa
Bewölkt: Bewölkt
Sichtbarkeit: More than 10 km
Bewölkung: Teilweise bewölkt 3200 ft,
Teilweise bewölkt 5700 ft,
Bewölkt 18000 ft
EHEH 140955Z AUTO VRB03KT 9999 SCT032 SCT057 OVC180 15/07 Q1008 BLU NOSIG
EHAM - Middelburg
Aktualisierung: 14-05-2021 11:55
Stark bewölkt  
Stark bewölkt  
   Wind: variiert 1.9 km/h
Wind: variiert 1.9 km/h
Temperatur: 11°C
Taupunkt: 7°C
Luftfeuchte: 77%
Luftdruck: 1008 hPa
Bewölkt: Stark bewölkt
Sichtbarkeit: More than 10 km
Bewölkung: leicht bewölkt 1100 ft,
Stark bewölkt 1700 ft
EHAM 140955Z VRB01KT 9999 FEW011 BKN017 11/07 Q1008 BECMG SCT020
EHAM - Delfzijl
Aktualisierung: 14-05-2021 11:55
Stark bewölkt  
Stark bewölkt  
   Wind: variiert 1.9 km/h
Wind: variiert 1.9 km/h
Temperatur: 11°C
Taupunkt: 7°C
Luftfeuchte: 77%
Luftdruck: 1008 hPa
Bewölkt: Stark bewölkt
Sichtbarkeit: More than 10 km
Bewölkung: leicht bewölkt 1100 ft,
Stark bewölkt 1700 ft
EHAM 140955Z VRB01KT 9999 FEW011 BKN017 11/07 Q1008 BECMG SCT020

Script entwickelt von  Saratoga-weather.org Angepasst für das Template von  Weerstation Leuven

Sie finden Wetter-Infos dieser Station auch auf:

UK Metoffice

European Weather Network

WeatherCloud

Weather Underground

AWEKAS

Neuwetter

Wettersektor

Von uns verwendete Ausrüstung:

Wetterstation
Davis VP2

Wetterprogramm
Meteobridge

WetterComputer
Computer

Anbieter
My provider

Davis VP2

Meteobridge

Computer

My provider